Mission

  • Our mission is to promote and protect San Carlos Airport and its flight operations, and to enhance the safety and spirit of general aviation through participation in local community activities.

Background

  • The San Carlos Airport Association (SCAA) has represented pilots and friends of the Airport since our founding in 1986.

Noise Abatement Procedures

  • San Carlos Airport is surrounded by noise sensitive neighborhoods. All pilots are encouraged to follow the noise abatement procedures

Live View of San Carlos Airport (SQL)

San Carlos METAR

  • KSQL 261655Z 32005KT 10SM BKN022 20/12 A3005

    A METAR describes the current weather at an airport. Click here to learn how to read a METAR.


SQL Notams

  • Click here and enter KSQL in the Locations box to read the Notices to Airmen (Notams) about San Carlos Airport.

ASOS from Half Moon Bay Airport (HAF)

Chapter

Contact

  • Email: webmaster at sancarlosairport.org
  • twitter
  • Our mailing address:
    San Carlos Airport Association
    P.O. Box 1183
    San Carlos, CA 94070
 

1/18/17 at SCK: Career Opportunities for Pilots


from our friends at CalPilots:

Great Lakes Airlines is looking for California-based pilots.

Meet with them Wed. Jan. 18, 2017, 1PM to 6PM, at Stockton Metro Airport, 5000 South Airport Way, Stockton, CA.

Areas of focus: Part 121 flying Embraer 120 Brasilia.

http://www.flygreatlakes.com

great_lakes